Year,Month,Day,Hour,Minute,Value (Times are PST for temperature in C)
2016,07,24,00,00,14.00
2016,07,24,00,01,14.00
2016,07,24,00,02,14.00
2016,07,24,00,03,13.90
2016,07,24,00,04,13.90
2016,07,24,00,05,13.90
2016,07,24,00,06,13.90
2016,07,24,00,07,13.90
2016,07,24,00,08,13.80
2016,07,24,00,09,13.80
2016,07,24,00,10,13.80
2016,07,24,00,11,13.80
2016,07,24,00,12,13.80
2016,07,24,00,13,13.80
2016,07,24,00,14,13.80
2016,07,24,00,15,13.80
2016,07,24,00,16,13.80
2016,07,24,00,17,13.80
2016,07,24,00,18,13.80
2016,07,24,00,19,13.80
2016,07,24,00,20,13.80
2016,07,24,00,21,13.80
2016,07,24,00,22,13.80
2016,07,24,00,23,13.80
2016,07,24,00,24,13.80
2016,07,24,00,25,13.80
2016,07,24,00,26,13.80
2016,07,24,00,27,13.80
2016,07,24,00,28,13.80
2016,07,24,00,29,13.80
2016,07,24,00,30,13.80
2016,07,24,00,31,13.80
2016,07,24,00,32,13.80
2016,07,24,00,33,13.70
2016,07,24,00,34,13.70
2016,07,24,00,35,13.70
2016,07,24,00,36,13.70
2016,07,24,00,37,13.70
2016,07,24,00,38,13.70
2016,07,24,00,39,13.70
2016,07,24,00,40,13.70
2016,07,24,00,41,13.70
2016,07,24,00,42,13.70
2016,07,24,00,43,13.70
2016,07,24,00,44,13.60
2016,07,24,00,45,13.60
2016,07,24,00,46,13.60
2016,07,24,00,47,13.60
2016,07,24,00,48,13.60
2016,07,24,00,49,13.60
2016,07,24,00,50,13.60
2016,07,24,00,51,13.60
2016,07,24,00,52,13.60
2016,07,24,00,53,13.60
2016,07,24,00,54,13.50
2016,07,24,00,55,13.50
2016,07,24,00,56,13.50
2016,07,24,00,57,13.50
2016,07,24,00,58,13.50
2016,07,24,00,59,13.50
2016,07,24,01,00,13.40
2016,07,24,01,01,13.40
2016,07,24,01,02,13.40
2016,07,24,01,03,13.40
2016,07,24,01,04,13.30
2016,07,24,01,05,13.30
2016,07,24,01,06,13.30
2016,07,24,01,07,13.30
2016,07,24,01,08,13.30
2016,07,24,01,09,13.30
2016,07,24,01,10,13.30
2016,07,24,01,11,13.30
2016,07,24,01,12,13.20
2016,07,24,01,13,13.20
2016,07,24,01,14,13.20
2016,07,24,01,15,13.20
2016,07,24,01,16,13.20
2016,07,24,01,17,13.20
2016,07,24,01,18,13.20
2016,07,24,01,19,13.20
2016,07,24,01,20,13.20
2016,07,24,01,21,13.20
2016,07,24,01,22,13.20
2016,07,24,01,23,13.20
2016,07,24,01,24,13.20
2016,07,24,01,25,13.20
2016,07,24,01,26,13.20
2016,07,24,01,27,13.20
2016,07,24,01,28,13.20
2016,07,24,01,29,13.20
2016,07,24,01,30,13.20
2016,07,24,01,31,13.20
2016,07,24,01,32,13.20
2016,07,24,01,33,13.20
2016,07,24,01,34,13.20
2016,07,24,01,35,13.20
2016,07,24,01,36,13.10
2016,07,24,01,37,13.10
2016,07,24,01,38,13.10
2016,07,24,01,39,13.20
2016,07,24,01,40,13.10
2016,07,24,01,41,13.10
2016,07,24,01,42,13.10
2016,07,24,01,43,13.10
2016,07,24,01,44,13.10
2016,07,24,01,45,13.10
2016,07,24,01,46,13.10
2016,07,24,01,47,13.10
2016,07,24,01,48,13.10
2016,07,24,01,49,13.10
2016,07,24,01,50,13.10
2016,07,24,01,51,13.10
2016,07,24,01,52,13.10
2016,07,24,01,53,13.10
2016,07,24,01,54,13.10
2016,07,24,01,55,13.10
2016,07,24,01,56,13.10
2016,07,24,01,57,13.10
2016,07,24,01,58,13.10
2016,07,24,01,59,13.10
2016,07,24,02,00,13.10
2016,07,24,02,01,13.20
2016,07,24,02,02,13.20
2016,07,24,02,03,13.20
2016,07,24,02,04,13.20
2016,07,24,02,05,13.20
2016,07,24,02,06,13.20
2016,07,24,02,07,13.20
2016,07,24,02,08,13.20
2016,07,24,02,09,13.20
2016,07,24,02,10,13.20
2016,07,24,02,11,13.20
2016,07,24,02,12,13.20
2016,07,24,02,13,13.20
2016,07,24,02,14,13.10
2016,07,24,02,15,13.10
2016,07,24,02,16,13.10
2016,07,24,02,17,13.10
2016,07,24,02,18,13.10
2016,07,24,02,19,13.10
2016,07,24,02,20,13.00
2016,07,24,02,21,13.00
2016,07,24,02,22,13.00
2016,07,24,02,23,13.00
2016,07,24,02,24,13.00
2016,07,24,02,25,13.00
2016,07,24,02,26,13.00
2016,07,24,02,27,13.00
2016,07,24,02,28,13.00
2016,07,24,02,29,13.00
2016,07,24,02,30,13.00
2016,07,24,02,31,13.00
2016,07,24,02,32,13.00
2016,07,24,02,33,13.00
2016,07,24,02,34,13.00
2016,07,24,02,35,13.00
2016,07,24,02,36,13.00
2016,07,24,02,37,13.10
2016,07,24,02,38,13.10
2016,07,24,02,39,13.10
2016,07,24,02,40,13.10
2016,07,24,02,41,13.00
2016,07,24,02,42,13.00
2016,07,24,02,43,13.00
2016,07,24,02,44,13.00
2016,07,24,02,45,13.00
2016,07,24,02,46,13.00
2016,07,24,02,47,12.90
2016,07,24,02,48,12.90
2016,07,24,02,49,12.90
2016,07,24,02,50,12.90
2016,07,24,02,51,12.90
2016,07,24,02,52,12.90
2016,07,24,02,53,12.90
2016,07,24,02,54,12.80
2016,07,24,02,55,12.80
2016,07,24,02,56,12.80
2016,07,24,02,57,12.80
2016,07,24,02,58,12.80
2016,07,24,02,59,12.80
2016,07,24,03,00,12.80
2016,07,24,03,01,12.80
2016,07,24,03,02,12.80
2016,07,24,03,06,12.70
2016,07,24,03,07,12.70
2016,07,24,03,08,12.70
2016,07,24,03,09,12.70
2016,07,24,03,10,12.80
2016,07,24,03,11,12.70
2016,07,24,03,12,12.70
2016,07,24,03,13,12.70
2016,07,24,03,14,12.70
2016,07,24,03,15,12.70
2016,07,24,03,16,12.70
2016,07,24,03,17,12.70
2016,07,24,03,18,12.70
2016,07,24,03,19,12.70
2016,07,24,03,20,12.70
2016,07,24,03,21,12.70
2016,07,24,03,22,12.70
2016,07,24,03,23,12.70
2016,07,24,03,24,12.70
2016,07,24,03,25,12.70
2016,07,24,03,26,12.60
2016,07,24,03,27,12.60
2016,07,24,03,28,12.60
2016,07,24,03,29,12.60
2016,07,24,03,30,12.60
2016,07,24,03,31,12.60
2016,07,24,03,32,12.60
2016,07,24,03,33,12.60
2016,07,24,03,34,12.60
2016,07,24,03,35,12.60
2016,07,24,03,36,12.60
2016,07,24,03,37,12.60
2016,07,24,03,38,12.60
2016,07,24,03,39,12.60
2016,07,24,03,40,12.60
2016,07,24,03,41,12.60
2016,07,24,03,42,12.60
2016,07,24,03,43,12.60
2016,07,24,03,44,12.60
2016,07,24,03,45,12.60
2016,07,24,03,46,12.50
2016,07,24,03,47,12.50
2016,07,24,03,48,12.50
2016,07,24,03,49,12.50
2016,07,24,03,50,12.50
2016,07,24,03,51,12.50
2016,07,24,03,52,12.50
2016,07,24,03,53,12.50
2016,07,24,03,54,12.50
2016,07,24,03,55,12.50
2016,07,24,03,56,12.40
2016,07,24,03,57,12.40
2016,07,24,03,58,12.40
2016,07,24,03,59,12.40
2016,07,24,04,00,12.40
2016,07,24,04,01,12.40
2016,07,24,04,02,12.40
2016,07,24,04,03,12.40
2016,07,24,04,04,12.40
2016,07,24,04,05,12.40
2016,07,24,04,06,12.40
2016,07,24,04,07,12.40
2016,07,24,04,08,12.40
2016,07,24,04,09,12.40
2016,07,24,04,10,12.40
2016,07,24,04,11,12.40
2016,07,24,04,12,12.40
2016,07,24,04,13,12.40
2016,07,24,04,14,12.40
2016,07,24,04,15,12.40
2016,07,24,04,16,12.40
2016,07,24,04,17,12.40
2016,07,24,04,18,12.40
2016,07,24,04,19,12.40
2016,07,24,04,20,12.40
2016,07,24,04,21,12.40
2016,07,24,04,22,12.40
2016,07,24,04,23,12.40
2016,07,24,04,24,12.40
2016,07,24,04,25,12.50
2016,07,24,04,26,12.50
2016,07,24,04,27,12.50
2016,07,24,04,28,12.50
2016,07,24,04,29,12.50
2016,07,24,04,30,12.60
2016,07,24,04,31,12.60
2016,07,24,04,32,12.60
2016,07,24,04,33,12.60
2016,07,24,04,34,12.60
2016,07,24,04,35,12.50
2016,07,24,04,36,12.50
2016,07,24,04,37,12.50
2016,07,24,04,38,12.50
2016,07,24,04,39,12.40
2016,07,24,04,40,12.40
2016,07,24,04,41,12.40
2016,07,24,04,42,12.40
2016,07,24,04,43,12.40
2016,07,24,04,44,12.30
2016,07,24,04,45,12.30
2016,07,24,04,46,12.30
2016,07,24,04,47,12.30
2016,07,24,04,48,12.30
2016,07,24,04,49,12.20
2016,07,24,04,50,12.20
2016,07,24,04,51,12.20
2016,07,24,04,52,12.20
2016,07,24,04,53,12.20
2016,07,24,04,54,12.20
2016,07,24,04,55,12.20
2016,07,24,04,56,12.20
2016,07,24,04,57,12.20
2016,07,24,04,58,12.10
2016,07,24,04,59,12.10
2016,07,24,05,00,12.10
2016,07,24,05,01,12.10
2016,07,24,05,02,12.10
2016,07,24,05,03,12.10
2016,07,24,05,04,12.10
2016,07,24,05,05,12.10
2016,07,24,05,06,12.20
2016,07,24,05,07,12.20
2016,07,24,05,08,12.20
2016,07,24,05,09,12.20
2016,07,24,05,10,12.20
2016,07,24,05,11,12.20
2016,07,24,05,12,12.20
2016,07,24,05,13,12.20
2016,07,24,05,14,12.20
2016,07,24,05,15,12.20
2016,07,24,05,16,12.20
2016,07,24,05,17,12.20
2016,07,24,05,18,12.20
2016,07,24,05,19,12.20
2016,07,24,05,20,12.20
2016,07,24,05,21,12.20
2016,07,24,05,22,12.20
2016,07,24,05,23,12.20
2016,07,24,05,24,12.20
2016,07,24,05,25,12.20
2016,07,24,05,26,12.20
2016,07,24,05,27,12.20
2016,07,24,05,28,12.20
2016,07,24,05,29,12.30
2016,07,24,05,30,12.30
2016,07,24,05,31,12.30
2016,07,24,05,32,12.30
2016,07,24,05,33,12.30
2016,07,24,05,34,12.30
2016,07,24,05,35,12.30
2016,07,24,05,36,12.30
2016,07,24,05,37,12.30
2016,07,24,05,38,12.30
2016,07,24,05,39,12.30
2016,07,24,05,40,12.30
2016,07,24,05,41,12.30
2016,07,24,05,42,12.30
2016,07,24,05,43,12.30
2016,07,24,05,44,12.30
2016,07,24,05,45,12.30
2016,07,24,05,46,12.30
2016,07,24,05,47,12.30
2016,07,24,05,48,12.30
2016,07,24,05,49,12.30
2016,07,24,05,50,12.30
2016,07,24,05,51,12.30
2016,07,24,05,52,12.30
2016,07,24,05,53,12.30
2016,07,24,05,54,12.30
2016,07,24,05,55,12.30
2016,07,24,05,56,12.30
2016,07,24,05,57,12.20
2016,07,24,05,58,12.20
2016,07,24,05,59,12.30
2016,07,24,06,00,12.20
2016,07,24,06,01,12.20
2016,07,24,06,02,12.20
2016,07,24,06,03,12.30
2016,07,24,06,04,12.30
2016,07,24,06,05,12.30
2016,07,24,06,06,12.30
2016,07,24,06,07,12.30
2016,07,24,06,08,12.30
2016,07,24,06,09,12.30
2016,07,24,06,10,12.30
2016,07,24,06,11,12.30
2016,07,24,06,12,12.30
2016,07,24,06,13,12.40
2016,07,24,06,14,12.40
2016,07,24,06,15,12.40
2016,07,24,06,16,12.40
2016,07,24,06,17,12.40
2016,07,24,06,18,12.40
2016,07,24,06,19,12.40
2016,07,24,06,20,12.40
2016,07,24,06,21,12.40
2016,07,24,06,22,12.40
2016,07,24,06,23,12.50
2016,07,24,06,24,12.50
2016,07,24,06,25,12.60
2016,07,24,06,26,12.60
2016,07,24,06,27,12.60
2016,07,24,06,28,12.60
2016,07,24,06,29,12.70
2016,07,24,06,30,12.70
2016,07,24,06,31,12.70
2016,07,24,06,32,12.70
2016,07,24,06,33,12.80
2016,07,24,06,34,12.80
2016,07,24,06,35,12.80
2016,07,24,06,36,12.80
2016,07,24,06,37,12.90
2016,07,24,06,38,12.90
2016,07,24,06,39,12.90
2016,07,24,06,40,13.00
2016,07,24,06,41,13.00
2016,07,24,06,42,13.10
2016,07,24,06,43,13.10
2016,07,24,06,44,13.10
2016,07,24,06,45,13.20
2016,07,24,06,46,13.20
2016,07,24,06,47,13.30
2016,07,24,06,48,13.40
2016,07,24,06,49,13.40
2016,07,24,06,50,13.50
2016,07,24,06,51,13.60
2016,07,24,06,52,13.60
2016,07,24,06,53,13.70
2016,07,24,06,54,13.80
2016,07,24,06,55,13.90
2016,07,24,06,56,14.00
2016,07,24,06,57,14.10
2016,07,24,06,58,14.30
2016,07,24,06,59,14.40
2016,07,24,07,00,14.60
2016,07,24,07,01,14.70
2016,07,24,07,02,14.80
2016,07,24,07,03,15.00
2016,07,24,07,04,15.10
2016,07,24,07,05,15.20
2016,07,24,07,06,15.40
2016,07,24,07,07,15.50
2016,07,24,07,08,15.60
2016,07,24,07,09,15.70
2016,07,24,07,10,15.80
2016,07,24,07,11,15.90
2016,07,24,07,12,16.00
2016,07,24,07,13,16.00
2016,07,24,07,14,16.10
2016,07,24,07,15,16.20
2016,07,24,07,16,16.20
2016,07,24,07,17,16.30
2016,07,24,07,18,16.40
2016,07,24,07,19,16.50
2016,07,24,07,20,16.50
2016,07,24,07,21,16.60
2016,07,24,07,22,16.60
2016,07,24,07,23,16.70
2016,07,24,07,24,16.80
2016,07,24,07,25,16.90
2016,07,24,07,26,16.90
2016,07,24,07,27,17.00
2016,07,24,07,28,17.00
2016,07,24,07,29,17.10
2016,07,24,07,30,17.10
2016,07,24,07,31,17.10
2016,07,24,07,32,17.10
2016,07,24,07,33,17.20
2016,07,24,07,34,17.20
2016,07,24,07,35,17.30
2016,07,24,07,36,17.40
2016,07,24,07,37,17.40
2016,07,24,07,38,17.50
2016,07,24,07,39,17.60
2016,07,24,07,40,17.70
2016,07,24,07,41,17.80
2016,07,24,07,42,17.90
2016,07,24,07,43,17.90
2016,07,24,07,44,18.00
2016,07,24,07,45,18.00
2016,07,24,07,46,18.00
2016,07,24,07,47,18.10
2016,07,24,07,48,18.10
2016,07,24,07,49,18.10
2016,07,24,07,50,18.10
2016,07,24,07,51,18.10
2016,07,24,07,52,18.20
2016,07,24,07,53,18.20
2016,07,24,07,54,18.20
2016,07,24,07,55,18.30
2016,07,24,07,56,18.40
2016,07,24,07,57,18.50
2016,07,24,07,58,18.60
2016,07,24,07,59,18.70
2016,07,24,08,00,18.80
2016,07,24,08,01,18.90
2016,07,24,08,02,19.00
2016,07,24,08,03,19.00
2016,07,24,08,04,19.20
2016,07,24,08,05,19.20
2016,07,24,08,06,19.30
2016,07,24,08,07,19.40
2016,07,24,08,08,19.40
2016,07,24,08,09,19.40
2016,07,24,08,10,19.50
2016,07,24,08,11,19.50
2016,07,24,08,12,19.50
2016,07,24,08,13,19.60
2016,07,24,08,14,19.70
2016,07,24,08,15,19.70
2016,07,24,08,16,19.70
2016,07,24,08,17,19.80
2016,07,24,08,18,19.80
2016,07,24,08,19,19.80
2016,07,24,08,20,19.80
2016,07,24,08,21,19.70
2016,07,24,08,22,19.80
2016,07,24,08,23,19.80
2016,07,24,08,24,19.80
2016,07,24,08,25,19.80
2016,07,24,08,26,19.70
2016,07,24,08,27,19.80
2016,07,24,08,28,19.80
2016,07,24,08,29,19.80
2016,07,24,08,30,19.90
2016,07,24,08,31,19.90
2016,07,24,08,32,20.00
2016,07,24,08,33,20.10
2016,07,24,08,34,20.20
2016,07,24,08,35,20.30
2016,07,24,08,36,20.30
2016,07,24,08,37,20.50
2016,07,24,08,38,20.50
2016,07,24,08,39,20.60
2016,07,24,08,40,20.60
2016,07,24,08,41,20.70
2016,07,24,08,42,20.80
2016,07,24,08,43,20.80
2016,07,24,08,44,20.80
2016,07,24,08,45,20.80
2016,07,24,08,46,20.80
2016,07,24,08,47,20.70
2016,07,24,08,48,20.60
2016,07,24,08,49,20.50
2016,07,24,08,50,20.30
2016,07,24,08,51,20.20
2016,07,24,08,52,20.00
2016,07,24,08,53,19.90
2016,07,24,08,54,19.60
2016,07,24,08,55,19.50
2016,07,24,08,56,19.40
2016,07,24,08,57,19.20
2016,07,24,08,58,19.10
2016,07,24,08,59,19.00
2016,07,24,09,00,18.80
2016,07,24,09,01,18.60
2016,07,24,09,02,18.50
2016,07,24,09,03,18.50
2016,07,24,09,04,18.40
2016,07,24,09,05,18.50
2016,07,24,09,06,18.60
2016,07,24,09,07,18.60
2016,07,24,09,08,18.70
2016,07,24,09,09,18.70
2016,07,24,09,10,18.70
2016,07,24,09,11,18.70
2016,07,24,09,12,18.80
2016,07,24,09,13,19.00
2016,07,24,09,14,19.10
2016,07,24,09,15,19.30
2016,07,24,09,16,19.40
2016,07,24,09,17,19.40
2016,07,24,09,18,19.40
2016,07,24,09,19,19.30
2016,07,24,09,20,19.30
2016,07,24,09,21,19.20
2016,07,24,09,22,19.20
2016,07,24,09,23,19.10
2016,07,24,09,24,19.10
2016,07,24,09,25,19.10
2016,07,24,09,26,19.10
2016,07,24,09,27,19.10
2016,07,24,09,28,19.00
2016,07,24,09,29,18.90
2016,07,24,09,30,18.80
2016,07,24,09,31,18.80
2016,07,24,09,32,18.80
2016,07,24,09,33,18.80
2016,07,24,09,34,18.70
2016,07,24,09,35,18.70
2016,07,24,09,36,18.60
2016,07,24,09,37,18.60
2016,07,24,09,38,18.70
2016,07,24,09,39,18.70
2016,07,24,09,40,18.80
2016,07,24,09,41,18.90
2016,07,24,09,42,19.00
2016,07,24,09,43,19.00
2016,07,24,09,44,19.00
2016,07,24,09,45,18.90
2016,07,24,09,46,19.00
2016,07,24,09,47,19.10
2016,07,24,09,48,19.30
2016,07,24,09,49,19.30
2016,07,24,09,50,19.40
2016,07,24,09,51,19.50
2016,07,24,09,52,19.50
2016,07,24,09,53,19.60
2016,07,24,09,54,19.70
2016,07,24,09,55,19.70
2016,07,24,09,56,19.60
2016,07,24,09,57,19.50
2016,07,24,09,58,19.50
2016,07,24,09,59,19.40
2016,07,24,10,00,19.40
2016,07,24,10,01,19.40
2016,07,24,10,02,19.40
2016,07,24,10,03,19.50
2016,07,24,10,04,19.50
2016,07,24,10,05,19.60
2016,07,24,10,06,19.70
2016,07,24,10,07,19.70
2016,07,24,10,08,19.80
2016,07,24,10,09,19.80
2016,07,24,10,10,19.80
2016,07,24,10,11,19.70
2016,07,24,10,12,19.70
2016,07,24,10,13,19.70
2016,07,24,10,14,19.80
2016,07,24,10,15,19.90
2016,07,24,10,16,19.90
2016,07,24,10,17,19.90
2016,07,24,10,18,20.00
2016,07,24,10,19,20.00
2016,07,24,10,20,20.00
2016,07,24,10,21,20.00
2016,07,24,10,22,20.10
2016,07,24,10,23,20.10
2016,07,24,10,24,20.20
2016,07,24,10,25,20.20
2016,07,24,10,26,20.20
2016,07,24,10,27,20.20
2016,07,24,10,28,20.30
2016,07,24,10,29,20.30
2016,07,24,10,30,20.40
2016,07,24,10,31,20.40
2016,07,24,10,32,20.50
2016,07,24,10,33,20.50
2016,07,24,10,34,20.40
2016,07,24,10,35,20.30
2016,07,24,10,36,20.30
2016,07,24,10,37,20.30
2016,07,24,10,38,20.20
2016,07,24,10,39,20.20
2016,07,24,10,40,20.20
2016,07,24,10,41,20.10
2016,07,24,10,42,20.00
2016,07,24,10,43,20.00
2016,07,24,10,44,19.90
2016,07,24,10,45,19.90
2016,07,24,10,46,19.90
2016,07,24,10,47,20.00
2016,07,24,10,48,20.00
2016,07,24,10,49,20.10
2016,07,24,10,50,20.20
2016,07,24,10,51,20.20
2016,07,24,10,52,20.30
2016,07,24,10,53,20.30
2016,07,24,10,54,20.30
2016,07,24,10,55,20.30
2016,07,24,10,56,20.40
2016,07,24,10,57,20.50
2016,07,24,10,58,20.60
2016,07,24,10,59,20.60
2016,07,24,11,00,20.50
2016,07,24,11,01,20.50
2016,07,24,11,02,20.50
2016,07,24,11,03,20.50
2016,07,24,11,04,20.50
2016,07,24,11,05,20.40
2016,07,24,11,06,20.40
2016,07,24,11,07,20.40
2016,07,24,11,08,20.50
2016,07,24,11,09,20.50
2016,07,24,11,10,20.60
2016,07,24,11,11,20.50
2016,07,24,11,12,20.50
2016,07,24,11,13,20.50
2016,07,24,11,14,20.50
2016,07,24,11,15,20.50
2016,07,24,11,16,20.50
2016,07,24,11,17,20.60
2016,07,24,11,18,20.60
2016,07,24,11,19,20.60
2016,07,24,11,20,20.50
2016,07,24,11,21,20.40
2016,07,24,11,22,20.40
2016,07,24,11,23,20.50
2016,07,24,11,24,20.50
2016,07,24,11,25,20.60
2016,07,24,11,26,20.60
2016,07,24,11,27,20.60
2016,07,24,11,28,20.60
2016,07,24,11,29,20.60
2016,07,24,11,30,20.70
2016,07,24,11,31,20.70
2016,07,24,11,32,20.80
2016,07,24,11,33,20.90
2016,07,24,11,34,20.90
2016,07,24,11,35,21.00
2016,07,24,11,36,21.10
2016,07,24,11,37,21.20
2016,07,24,11,38,21.40
2016,07,24,11,39,21.50
2016,07,24,11,40,21.60
2016,07,24,11,41,21.70
2016,07,24,11,42,21.80
2016,07,24,11,43,21.90
2016,07,24,11,44,21.90
2016,07,24,11,45,21.90
2016,07,24,11,46,21.90
2016,07,24,11,47,21.90
2016,07,24,11,48,21.90
2016,07,24,11,49,21.90
2016,07,24,11,50,21.90
2016,07,24,11,51,21.90
2016,07,24,11,52,22.00
2016,07,24,11,53,22.00
2016,07,24,11,54,22.00
2016,07,24,11,55,22.00
2016,07,24,11,56,22.00
2016,07,24,11,57,22.10
2016,07,24,11,58,22.10
2016,07,24,11,59,22.10
2016,07,24,12,00,22.00
2016,07,24,12,01,22.00
2016,07,24,12,02,22.00
2016,07,24,12,03,21.80
2016,07,24,12,04,21.60
2016,07,24,12,05,21.50
2016,07,24,12,06,21.40
2016,07,24,12,07,21.40
2016,07,24,12,08,21.40
2016,07,24,12,09,21.40
2016,07,24,12,10,21.50
2016,07,24,12,11,21.50
2016,07,24,12,12,21.60
2016,07,24,12,13,21.70
2016,07,24,12,14,21.80
2016,07,24,12,15,21.80
2016,07,24,12,16,22.00
2016,07,24,12,17,22.10
2016,07,24,12,18,22.20
2016,07,24,12,19,22.20
2016,07,24,12,20,22.20
2016,07,24,12,21,22.20
2016,07,24,12,22,22.20
2016,07,24,12,23,22.20
2016,07,24,12,24,22.20
2016,07,24,12,25,22.30
2016,07,24,12,26,22.30
2016,07,24,12,27,22.30
2016,07,24,12,28,22.40
2016,07,24,12,29,22.50
2016,07,24,12,30,22.60
2016,07,24,12,31,22.70
2016,07,24,12,32,22.70
2016,07,24,12,33,22.70
2016,07,24,12,34,22.80
2016,07,24,12,35,22.80
2016,07,24,12,36,22.80
2016,07,24,12,37,22.80
2016,07,24,12,38,22.70
2016,07,24,12,39,22.70
2016,07,24,12,40,22.60
2016,07,24,12,41,22.50
2016,07,24,12,42,22.40
2016,07,24,12,43,22.40
2016,07,24,12,44,22.50
2016,07,24,12,45,22.70
2016,07,24,12,46,22.80
2016,07,24,12,47,22.80
2016,07,24,12,48,22.80
2016,07,24,12,49,22.90
2016,07,24,12,50,22.90
2016,07,24,12,51,22.90
2016,07,24,12,52,22.80
2016,07,24,12,53,22.70
2016,07,24,12,54,22.70
2016,07,24,12,55,22.70
2016,07,24,12,56,22.80
2016,07,24,12,57,22.80
2016,07,24,12,58,22.80
2016,07,24,12,59,22.80
2016,07,24,13,00,22.80
2016,07,24,13,01,22.80
2016,07,24,13,02,22.80
2016,07,24,13,03,22.90
2016,07,24,13,04,23.00
2016,07,24,13,05,23.10
2016,07,24,13,06,23.20
2016,07,24,13,07,23.10
2016,07,24,13,08,23.10
2016,07,24,13,09,23.00
2016,07,24,13,10,23.00
2016,07,24,13,11,23.10
2016,07,24,13,12,23.10
2016,07,24,13,13,23.30
2016,07,24,13,14,23.20
2016,07,24,13,15,23.00
2016,07,24,13,16,22.90
2016,07,24,13,17,22.80
2016,07,24,13,18,22.70
2016,07,24,13,19,22.60
2016,07,24,13,20,22.60
2016,07,24,13,21,22.70
2016,07,24,13,22,22.70
2016,07,24,13,23,22.70
2016,07,24,13,24,22.60
2016,07,24,13,25,22.50
2016,07,24,13,26,22.50
2016,07,24,13,27,22.50
2016,07,24,13,28,22.40
2016,07,24,13,29,22.50
2016,07,24,13,30,22.60
2016,07,24,13,31,22.60
2016,07,24,13,32,22.60
2016,07,24,13,33,22.60
2016,07,24,13,34,22.60
2016,07,24,13,35,22.60
2016,07,24,13,36,22.70
2016,07,24,13,37,22.80
2016,07,24,13,38,22.90
2016,07,24,13,39,23.00
2016,07,24,13,40,23.10
2016,07,24,13,41,23.20
2016,07,24,13,42,23.20
2016,07,24,13,43,23.20
2016,07,24,13,44,23.20
2016,07,24,13,45,23.20
2016,07,24,13,46,23.30
2016,07,24,13,47,23.30
2016,07,24,13,48,23.40
2016,07,24,13,49,23.50
2016,07,24,13,50,23.60
2016,07,24,13,51,23.60
2016,07,24,13,52,23.70
2016,07,24,13,53,23.70
2016,07,24,13,54,23.80
2016,07,24,13,55,23.90
2016,07,24,13,56,23.90
2016,07,24,13,57,23.90
2016,07,24,13,58,23.90
2016,07,24,13,59,23.90
2016,07,24,14,00,23.90
2016,07,24,14,01,24.00
2016,07,24,14,02,24.00
2016,07,24,14,03,24.10
2016,07,24,14,04,24.20
2016,07,24,14,05,24.30
2016,07,24,14,06,24.30
2016,07,24,14,07,24.30
2016,07,24,14,08,24.30
2016,07,24,14,09,24.30
2016,07,24,14,10,24.30
2016,07,24,14,11,24.30
2016,07,24,14,12,24.10
2016,07,24,14,13,23.80
2016,07,24,14,14,23.70
2016,07,24,14,15,23.80
2016,07,24,14,16,23.80
2016,07,24,14,17,23.80
2016,07,24,14,18,23.80
2016,07,24,14,19,23.80
2016,07,24,14,20,23.80
2016,07,24,14,21,23.80
2016,07,24,14,22,23.80
2016,07,24,14,23,23.80
2016,07,24,14,24,23.80
2016,07,24,14,25,23.70
2016,07,24,14,26,23.70
2016,07,24,14,27,23.60
2016,07,24,14,28,23.60
2016,07,24,14,29,23.60
2016,07,24,14,30,23.60
2016,07,24,14,31,23.60
2016,07,24,14,32,23.60
2016,07,24,14,33,23.60
2016,07,24,14,34,23.60
2016,07,24,14,35,23.50
2016,07,24,14,36,23.50
2016,07,24,14,37,23.50
2016,07,24,14,38,23.60
2016,07,24,14,39,23.60
2016,07,24,14,40,23.60
2016,07,24,14,41,23.50
2016,07,24,14,42,23.40
2016,07,24,14,43,23.40
2016,07,24,14,44,23.40
2016,07,24,14,45,23.40
2016,07,24,14,46,23.40
2016,07,24,14,47,23.60
2016,07,24,14,48,23.60
2016,07,24,14,49,23.60
2016,07,24,14,50,23.60
2016,07,24,14,51,23.40
2016,07,24,14,52,23.30
2016,07,24,14,53,23.30
2016,07,24,14,54,23.30
2016,07,24,14,55,23.30
2016,07,24,14,56,23.40
2016,07,24,14,57,23.40
2016,07,24,14,58,23.50
2016,07,24,14,59,23.60
2016,07,24,15,00,23.70
2016,07,24,15,01,23.70
2016,07,24,15,02,23.70
2016,07,24,15,03,23.70
2016,07,24,15,04,23.60
2016,07,24,15,05,23.60
2016,07,24,15,06,23.70
2016,07,24,15,07,23.70
2016,07,24,15,08,23.80
2016,07,24,15,09,23.80
2016,07,24,15,10,23.80
2016,07,24,15,11,23.80
2016,07,24,15,12,23.70
2016,07,24,15,13,23.70
2016,07,24,15,14,23.60
2016,07,24,15,15,23.60
2016,07,24,15,16,23.50
2016,07,24,15,17,23.40
2016,07,24,15,18,23.50
2016,07,24,15,19,23.50
2016,07,24,15,20,23.50
2016,07,24,15,21,23.60
2016,07,24,15,22,23.60
2016,07,24,15,23,23.60
2016,07,24,15,24,23.60
2016,07,24,15,25,23.60
2016,07,24,15,26,23.60
2016,07,24,15,27,23.60
2016,07,24,15,28,23.60
2016,07,24,15,29,23.70
2016,07,24,15,30,23.70
2016,07,24,15,31,23.80
2016,07,24,15,32,23.80
2016,07,24,15,33,23.80
2016,07,24,15,34,23.80
2016,07,24,15,35,23.80
2016,07,24,15,36,23.70
2016,07,24,15,37,23.70
2016,07,24,15,38,23.70
2016,07,24,15,39,23.70
2016,07,24,15,40,23.70
2016,07,24,15,41,23.80
2016,07,24,15,42,23.90
2016,07,24,15,43,23.90
2016,07,24,15,44,24.00
2016,07,24,15,45,24.00
2016,07,24,15,46,23.90
2016,07,24,15,47,23.80
2016,07,24,15,48,23.60
2016,07,24,15,49,23.50
2016,07,24,15,50,23.40
2016,07,24,15,51,23.30
2016,07,24,15,52,23.30
2016,07,24,15,53,23.30
2016,07,24,15,54,23.30
2016,07,24,15,55,23.30
2016,07,24,15,56,23.30
2016,07,24,15,57,23.30
2016,07,24,15,58,23.40
2016,07,24,15,59,23.40
2016,07,24,16,00,23.50
2016,07,24,16,01,23.60
2016,07,24,16,02,23.60
2016,07,24,16,03,23.70
2016,07,24,16,04,23.70
2016,07,24,16,05,23.80
2016,07,24,16,06,23.80
2016,07,24,16,07,23.80
2016,07,24,16,08,23.80
2016,07,24,16,09,23.70
2016,07,24,16,10,23.70
2016,07,24,16,11,23.70
2016,07,24,16,12,23.60
2016,07,24,16,13,23.60
2016,07,24,16,14,23.60
2016,07,24,16,15,23.70
2016,07,24,16,16,23.70
2016,07,24,16,17,23.80
2016,07,24,16,18,23.80
2016,07,24,16,19,23.90
2016,07,24,16,20,23.90
2016,07,24,16,21,24.00
2016,07,24,16,22,24.10
2016,07,24,16,23,24.20
2016,07,24,16,24,24.20
2016,07,24,16,25,24.30
2016,07,24,16,26,24.30
2016,07,24,16,27,24.20
2016,07,24,16,28,24.20
2016,07,24,16,29,24.10
2016,07,24,16,30,24.10
2016,07,24,16,31,24.10
2016,07,24,16,32,24.10
2016,07,24,16,33,24.00
2016,07,24,16,34,23.90
2016,07,24,16,35,23.90
2016,07,24,16,36,23.80
2016,07,24,16,37,23.80
2016,07,24,16,38,23.70
2016,07,24,16,39,23.70
2016,07,24,16,40,23.60
2016,07,24,16,41,23.60
2016,07,24,16,42,23.50
2016,07,24,16,43,23.50
2016,07,24,16,44,23.40
2016,07,24,16,45,23.40
2016,07,24,16,46,23.30
2016,07,24,16,47,23.20
2016,07,24,16,48,23.10
2016,07,24,16,49,23.00
2016,07,24,16,50,22.90
2016,07,24,16,51,22.80
2016,07,24,16,52,22.70
2016,07,24,16,53,22.60
2016,07,24,16,54,22.60
2016,07,24,16,55,22.60
2016,07,24,16,56,22.60
2016,07,24,16,57,22.60
2016,07,24,16,58,22.70
2016,07,24,16,59,22.70
2016,07,24,17,00,22.80
2016,07,24,17,01,22.80
2016,07,24,17,02,22.90
2016,07,24,17,03,22.90
2016,07,24,17,04,23.00
2016,07,24,17,05,23.00
2016,07,24,17,06,23.10
2016,07,24,17,07,23.10
2016,07,24,17,08,23.10
2016,07,24,17,09,23.10
2016,07,24,17,10,23.20
2016,07,24,17,11,23.10
2016,07,24,17,12,23.10
2016,07,24,17,13,23.10
2016,07,24,17,14,23.10
2016,07,24,17,15,23.10
2016,07,24,17,16,23.10
2016,07,24,17,17,23.10
2016,07,24,17,18,23.10
2016,07,24,17,19,23.20
2016,07,24,17,20,23.20
2016,07,24,17,21,23.20
2016,07,24,17,22,23.30